Location: Recife
(8.0585°S, 34.8848°W)
Time: 12:12:03
(UTC-03:00)

Hubble Space Telescope - Pass Details

Date: 27 September 2021
Orbit: 535 x 538 km, 28.5° (Epoch: 21 October)

Event Time Altitude Azimuth Distance (km) Brightness Sun altitude
Rises 17:42:19 0° 322° (NW) 2,658 4.8 -7.6°
Reaches altitude 10° 17:44:53 10° 336° (NNW) 1,772 3.7 -8.3°
Maximum altitude 17:48:13 24° 31° (NNE) 1,132 2.1 -9.1°
Enters shadow 17:50:59 13° 80° (E) 1,600 2.5 -9.8°
